Weather History for Liverpool, United Kingdom

Change the Weather History Date:

Friday, June 14, 2013

  Actual Average Record
Temperature  
Mean Temperature 56 °F -  
Max Temperature 62 °F 65 °F 73 °F (2003)
Min Temperature 51 °F 52 °F 46 °F (2011)
Degree Days  
Heating Degree Days 8    
Growing Degree Days 6 (Base 50)    
Moisture  
Dew Point 50 °F    
Average Humidity 80    
Maximum Humidity 94    
Minimum Humidity 63    
Precipitation  
Precipitation 0.00 in - - ()
Sea Level Pressure  
Sea Level Pressure 29.83 in    
Wind  
Wind Speed 9 mph ()    
Max Wind Speed 20 mph    
Max Gust Speed 29 mph    
Visibility 6.1 miles    
Events Rain    
Averages and records for this station are not official NWS values.
T = Trace of Precipitation, MM = Missing Value Source: Averaged Metar Reports

Daily Weather History Graph

Daily Weather History Graph

Search for Another Location

Airport:

Trip Planner

Search our weather history database for the weather conditions in past years. The results will help you decide how hot, cold, wet, or windy it might be!

Date:

Astronomy

Jun. 14, 2013 Rise Set
Actual Time 4:43 AM BST 9:40 PM BST
Civil Twilight 3:50 AM BST 10:32 PM BST
Nautical Twilight 2:19 AM BST 12:04 AM BST
Astronomical Twilight Sun does not rise Sun does not rise
Moon 10:46 AM BST (6/14) 12:00 AM BST (6/14)
Length of Visible Light 18h 41m
Length of Day
16h 57m
Waxing Crescent, 28% of the Moon is Illuminated
Jun 14
Waxing Crescent
Jun 16
First Quarter
Jun 23
Full
Jun 30
Last Quarter
Jul 8
New

Hourly Weather History & Observations

Time (BST) Temp. Dew Point Humidity Pressure Visibility Wind Dir Wind Speed Gust Speed Precip Events Conditions
12:20 AM 53.6 °F 50.0 °F 88% 29.92 in 6.2 mi SW 8.1 mph - N/A   Partly Cloudy
12:50 AM 53.6 °F 50.0 °F 88% 29.92 in 6.2 mi SW 8.1 mph - N/A   Scattered Clouds
1:20 AM 53.6 °F 48.2 °F 82% 29.95 in 6.2 mi WSW 6.9 mph - N/A   Partly Cloudy
1:50 AM 51.8 °F 48.2 °F 88% 29.95 in 6.2 mi SW 8.1 mph - N/A   Partly Cloudy
2:50 AM 53.6 °F 48.2 °F 82% 29.95 in 6.2 mi WSW 8.1 mph - N/A   Scattered Clouds
3:50 AM 53.6 °F 48.2 °F 82% 29.92 in 6.2 mi SW 9.2 mph - N/A   Scattered Clouds
4:50 AM 53.6 °F 48.2 °F 82% 29.92 in 6.2 mi South 8.1 mph - N/A   Partly Cloudy
5:50 AM 51.8 °F 46.4 °F 82% 29.92 in 6.2 mi SSE 6.9 mph - N/A   Partly Cloudy
6:20 AM 51.8 °F 48.2 °F 88% 29.92 in 6.2 mi South 6.9 mph - N/A   Partly Cloudy
6:50 AM 53.6 °F 48.2 °F 82% 29.92 in 6.2 mi South 9.2 mph - N/A   Partly Cloudy
7:20 AM 55.4 °F 48.2 °F 77% 29.92 in 6.2 mi South 11.5 mph - N/A   Partly Cloudy
7:50 AM 55.4 °F 50.0 °F 82% 29.92 in 6.2 mi South 10.4 mph - N/A   Partly Cloudy
8:50 AM 57.2 °F 50.0 °F 77% 29.92 in 6.2 mi South 9.2 mph - N/A   Partly Cloudy
9:20 AM 57.2 °F 50.0 °F 77% 29.92 in 6.2 mi South 10.4 mph - N/A   Partly Cloudy
9:50 AM 59.0 °F 50.0 °F 72% 29.89 in 6.2 mi South 9.2 mph - N/A   Partly Cloudy
10:20 AM 59.0 °F 50.0 °F 72% 29.89 in 6.2 mi South 11.5 mph - N/A   Scattered Clouds
10:50 AM 59.0 °F 51.8 °F 77% 29.89 in 6.2 mi South 11.5 mph - N/A   Scattered Clouds
11:20 AM 57.2 °F 51.8 °F 82% 29.89 in 6.2 mi South 12.7 mph - N/A Rain Light Rain Showers
11:50 AM 57.2 °F 53.6 °F 88% 29.89 in 6.2 mi South 10.4 mph - N/A Rain Light Rain
12:20 PM 57.2 °F 53.6 °F 88% 29.89 in 6.2 mi South 10.4 mph - N/A   Mostly Cloudy
12:50 PM 57.2 °F 53.6 °F 88% 29.89 in 5.6 mi South 11.5 mph - N/A Rain Light Rain
1:20 PM 57.2 °F 55.4 °F 94% 29.86 in 6.2 mi South 9.2 mph - N/A   Mostly Cloudy
2:20 PM 55.4 °F 50.0 °F 82% 29.86 in 6.2 mi SSW 11.5 mph - N/A   Mostly Cloudy
2:50 PM 57.2 °F 51.8 °F 82% 29.83 in 6.2 mi South 6.9 mph - N/A   Mostly Cloudy
3:20 PM 59.0 °F 53.6 °F 82% 29.83 in 6.2 mi South 8.1 mph - N/A Rain Rain Showers
3:50 PM 60.8 °F 53.6 °F 77% 29.83 in 6.2 mi SSW 10.4 mph - N/A Rain Light Rain Showers
4:20 PM 59.0 °F 53.6 °F 82% 29.80 in 6.2 mi SSE 9.2 mph - N/A Rain Light Rain Showers
4:50 PM 62.6 °F 51.8 °F 68% 29.80 in 6.2 mi South 11.5 mph - N/A   Scattered Clouds
5:20 PM 62.6 °F 50.0 °F 63% 29.77 in 6.2 mi SSW 15.0 mph - N/A   Scattered Clouds
5:50 PM 62.6 °F 50.0 °F 63% 29.77 in 6.2 mi SSW 15.0 mph - N/A   Partly Cloudy
6:20 PM 57.2 °F 51.8 °F 82% 29.77 in 3.7 mi South 13.8 mph 26.5 mph N/A Rain Light Rain Showers
6:50 PM 57.2 °F 51.8 °F 82% 29.74 in 5.6 mi South 11.5 mph - N/A Rain Light Rain Showers
7:20 PM 55.4 °F 51.8 °F 88% 29.74 in 6.2 mi SSW 13.8 mph - N/A Rain Rain Showers
7:50 PM 57.2 °F 51.8 °F 82% 29.74 in 4.3 mi SSW 13.8 mph - N/A   Mostly Cloudy
8:20 PM 57.2 °F 50.0 °F 77% 29.71 in 6.2 mi South 15.0 mph - N/A   Mostly Cloudy
8:50 PM 55.4 °F 44.6 °F 67% 29.68 in 6.2 mi SSE 13.8 mph - N/A   Partly Cloudy
9:20 PM 57.2 °F 48.2 °F 72% 29.68 in 6.2 mi South 15.0 mph 26.5 mph N/A   Partly Cloudy
9:50 PM 55.4 °F 48.2 °F 77% 29.65 in 6.2 mi SSE 17.3 mph 28.8 mph N/A   Scattered Clouds
10:20 PM 55.4 °F 46.4 °F 72% 29.65 in 6.2 mi SSE 13.8 mph - N/A   Scattered Clouds
11:20 PM 55.4 °F 46.4 °F 72% 29.62 in 6.2 mi SSE 19.6 mph - N/A   Mostly Cloudy
11:50 PM 55.4 °F 48.2 °F 77% 29.59 in 6.2 mi SSE 19.6 mph - N/A Rain Light Rain Showers